Find Starlink 32911

NORAD ID: 63096 Int'l Des: 2025-037 Owner: SPXS Country: US Constellation: starlink operational
LEOCIRCULAR

Current View

Loading 3D Globe...

About Starlink 32911

Starlink 32911 (NORAD 63096) is a starlink constellation satellite (v2 mini) launched Feb 23, 2025 by SPXS of US. It operates in LEO, CIRCULAR orbit with a mass of 730.00 kg.

About Starlink 32911

Description loading...

Upcoming Passes

Passes for default location (London). Set your location on the main map for personalized predictions.

Altitude History

Loading altitude history...

Two-Line Element Set

1 63096U 25037V 26176.48196643 .00010119 00000-0 85429-3 0 9997
2 63096 70.0013 82.8568 0001752 271.8152 88.2806 14.98346822 74735
Epoch: Jun 25, 2026 • Age: 10 hours

Current Status

Altitude 584.7 km
Velocity 7.57 km/s
Sub-Earth Point 70.07°N, 62.61°W
Launch Date Feb 23, 2025
Age 1.3 years
Type internet

Technical Details

Classification Payload
Mass 730.00 kg
Dry Mass 700.00 kg
Total Mass 730.00 kg
Length 0.30 m
Diameter 4.10 m
Span 29.00 m
Shape Box + pan
Manufacturer SPXS
Bus Type Starlink V2M
Phase Status In Orbit
Owner/State SPXS/US

Most Searched